| time (UTC) | temp C | wind direction | speed KPH | gust KPH | rain 1hr cm | rain 24hr cm | rain mn cm | humidity % | barometer mb |
| 20260507183713 | 11 | 69 | 4.8 | 11.3 | 0.10 | 2.59 | 2.59 | 86 | 1010.0 |
| 20260507183601 | 11 | 49 | 4.8 | 11.3 | 0.10 | 2.59 | 2.59 | 86 | 1010.2 |
| 20260507182437 | 11 | 330 | 4.8 | 16.1 | 0.13 | 2.59 | 2.59 | 86 | 1010.2 |
| 20260507181931 | 11 | 5 | 6.4 | 16.1 | 0.15 | 2.59 | 2.59 | 86 | 1009.6 |
| 20260507181437 | 11 | 26 | 4.8 | 14.5 | 0.15 | 2.59 | 2.59 | 85 | 1009.4 |
| 20260507180919 | 11 | 68 | 4.8 | 16.1 | 0.15 | 2.57 | 2.57 | 86 | 1009.8 |
| 20260507180413 | 11 | 329 | 3.2 | 16.1 | 0.15 | 2.57 | 2.57 | 85 | 1009.8 |
| 20260507175907 | 11 | 182 | 3.2 | 16.1 | 0.18 | 2.57 | 2.57 | 86 | 1009.8 |
| 20260507175401 | 11 | 60 | 3.2 | 16.1 | 0.18 | 2.57 | 2.57 | 86 | 1010.3 |
| 20260507174854 | 11 | 100 | 1.6 | 9.7 | 0.15 | 2.54 | 2.54 | 86 | 1010.3 |
| 20260507174349 | 11 | 195 | 1.6 | 6.4 | 0.15 | 2.54 | 2.54 | 86 | 1010.6 |
| 20260507173843 | 11 | 38 | 4.8 | 17.7 | 0.13 | 2.51 | 2.51 | 86 | 1010.8 |
| 20260507173337 | 11 | 355 | 4.8 | 17.7 | 0.13 | 2.49 | 2.49 | 86 | 1010.8 |
| 20260507172830 | 11 | 345 | 4.8 | 14.5 | 0.10 | 2.46 | 2.49 | 86 | 1011.0 |
| 20260507172324 | 11 | 9 | 3.2 | 14.5 | 0.13 | 2.46 | 2.46 | 86 | 1011.1 |
| 20260507171819 | 11 | 315 | 1.6 | 8.0 | 0.13 | 2.44 | 2.44 | 86 | 1011.1 |
| 20260507171313 | 11 | 54 | 1.6 | 6.4 | 0.15 | 2.44 | 2.44 | 86 | 1011.2 |
| 20260507170807 | 11 | 62 | 1.6 | 8.0 | 0.18 | 2.41 | 2.41 | 86 | 1011.3 |
| 20260507170314 | 11 | 328 | 3.2 | 8.0 | 0.23 | 2.41 | 2.41 | 86 | 1011.0 |
| 20260507165755 | 11 | 31 | 1.6 | 6.4 | 0.25 | 2.39 | 2.39 | 86 | 1011.0 |
| 20260507165520 | 11 | 16 | 3.2 | 12.9 | 0.28 | 2.39 | 2.39 | 86 | 1011.0 |
| 20260507164743 | 11 | 24 | 3.2 | 12.9 | 0.36 | 2.39 | 2.39 | 86 | 1010.9 |
| 20260507164236 | 11 | 123 | 1.6 | 9.7 | 0.41 | 2.39 | 2.39 | 86 | 1011.1 |
| 20260507163731 | 12 | 319 | 3.2 | 11.3 | 0.46 | 2.39 | 2.39 | 86 | 1011.0 |
| 20260507163225 | 12 | 316 | 3.2 | 12.9 | 0.46 | 2.36 | 2.36 | 86 | 1010.9 |
| 20260507162719 | 12 | 34 | 3.2 | 12.9 | 0.53 | 2.36 | 2.36 | 86 | 1010.8 |
| 20260507162215 | 12 | 0 | 3.2 | 12.9 | 0.56 | 2.34 | 2.34 | 86 | 1010.7 |
| 20260507162209 | 12 | 56 | 4.8 | 16.1 | 0.58 | 2.31 | 2.31 | 86 | 1010.7 |
| 20260507161201 | 12 | 9 | 4.8 | 16.1 | 0.58 | 2.26 | 2.29 | 86 | 1010.9 |
| 20260507160655 | 12 | 355 | 4.8 | 17.7 | 0.61 | 2.24 | 2.24 | 86 | 1011.1 |
| 20260507160148 | 12 | 0 | 3.2 | 17.7 | 0.66 | 2.18 | 2.18 | 86 | 1011.1 |
| 20260507155643 | 12 | 317 | 3.2 | 9.7 | 0.71 | 2.13 | 2.13 | 85 | 1010.7 |
| 20260507155137 | 12 | 256 | 3.2 | 11.3 | 0.71 | 2.08 | 2.08 | 85 | 1010.7 |
| 20260507154631 | 12 | 303 | 3.2 | 12.9 | 0.66 | 2.03 | 2.03 | 86 | 1010.3 |
| 20260507154124 | 12 | 73 | 4.8 | 22.5 | 0.64 | 1.98 | 1.98 | 85 | 1010.7 |
| 20260507153619 | 12 | 344 | 4.8 | 22.5 | 0.58 | 1.93 | 1.93 | 85 | 1010.9 |
| 20260507153113 | 13 | 34 | 3.2 | 17.7 | 0.53 | 1.88 | 1.88 | 85 | 1010.8 |
| 20260507152607 | 13 | 59 | 3.2 | 14.5 | 0.48 | 1.83 | 1.83 | 86 | 1011.2 |
| 20260507152102 | 13 | 24 | 3.2 | 17.7 | 0.43 | 1.78 | 1.78 | 86 | 1011.1 |
| 20260507152056 | 13 | 16 | 4.8 | 17.7 | 0.41 | 1.73 | 1.73 | 86 | 1011.1 |
| 20260507151049 | 13 | 313 | 6.4 | 17.7 | 0.33 | 1.65 | 1.68 | 86 | 1011.1 |
| 20260507150543 | 13 | 21 | 4.8 | 17.7 | 0.30 | 1.60 | 1.60 | 85 | 1011.3 |
| 20260507150036 | 13 | 344 | 3.2 | 9.7 | 0.23 | 1.52 | 1.52 | 86 | 1011.1 |
| 20260507145531 | 13 | 17 | 3.2 | 12.9 | 0.10 | 1.40 | 1.42 | 85 | 1011.0 |
| 20260507145025 | 13 | 71 | 4.8 | 14.5 | 0.08 | 1.37 | 1.37 | 85 | 1011.2 |
| 20260507144519 | 13 | 346 | 6.4 | 14.5 | 0.08 | 1.37 | 1.37 | 85 | 1011.0 |
| 20260507144013 | 13 | 13 | 8.0 | 17.7 | 0.05 | 1.35 | 1.35 | 85 | 1011.0 |
| 20260507143507 | 13 | 24 | 8.0 | 20.9 | 0.08 | 1.35 | 1.35 | 85 | 1010.8 |
| 20260507143232 | 14 | 355 | 8.0 | 20.9 | 0.08 | 1.35 | 1.35 | 85 | 1010.7 |
| 20260507142454 | 14 | 5 | 6.4 | 14.5 | 0.08 | 1.35 | 1.35 | 86 | 1010.7 |
| 20260507141949 | 14 | 14 | 4.8 | 14.5 | 0.08 | 1.35 | 1.35 | 85 | 1010.8 |
| 20260507141443 | 14 | 0 | 6.4 | 14.5 | 0.08 | 1.32 | 1.32 | 85 | 1010.7 |
| 20260507140938 | 15 | 342 | 6.4 | 19.3 | 0.10 | 1.32 | 1.32 | 85 | 1010.6 |
| 20260507140932 | 15 | 22 | 6.4 | 19.3 | 0.13 | 1.30 | 1.30 | 85 | 1010.5 |
| 20260507135925 | 15 | 355 | 4.8 | 16.1 | 0.13 | 1.30 | 1.30 | 85 | 1010.5 |
| 20260507135419 | 15 | 333 | 3.2 | 8.0 | 0.13 | 1.30 | 1.30 | 85 | 1010.5 |
| 20260507134912 | 15 | 274 | 3.2 | 16.1 | 0.13 | 1.30 | 1.30 | 86 | 1010.4 |
| 20260507134407 | 15 | 340 | 3.2 | 17.7 | 0.15 | 1.30 | 1.30 | 86 | 1010.5 |
| 20260507133901 | 15 | 18 | 4.8 | 17.7 | 0.15 | 1.30 | 1.30 | 85 | 1010.5 |
| 20260507133355 | 15 | 326 | 4.8 | 22.5 | 0.13 | 1.27 | 1.27 | 86 | 1010.5 |
| 20260507133120 | 15 | 326 | 3.2 | 22.5 | 0.13 | 1.27 | 1.27 | 86 | 1010.3 |
| 20260507132343 | 15 | 33 | 3.2 | 9.7 | 0.13 | 1.27 | 1.27 | 86 | 1010.2 |
| 20260507131837 | 15 | 306 | 3.2 | 9.7 | 0.15 | 1.27 | 1.27 | 85 | 1010.2 |
| 20260507131331 | 15 | 11 | 3.2 | 14.5 | 0.13 | 1.24 | 1.24 | 85 | 1010.3 |
| 20260507131056 | 15 | 327 | 4.8 | 14.5 | 0.13 | 1.22 | 1.22 | 85 | 1010.4 |
| 20260507130318 | 15 | 25 | 4.8 | 14.5 | 0.13 | 1.17 | 1.17 | 85 | 1010.6 |
| 20260507125813 | 15 | 350 | 4.8 | 14.5 | 0.18 | 1.17 | 1.17 | 85 | 1010.7 |
| 20260507125307 | 15 | 52 | 6.4 | 14.5 | 0.25 | 1.17 | 1.17 | 85 | 1010.8 |
| 20260507124800 | 15 | 47 | 6.4 | 14.5 | 0.33 | 1.17 | 1.17 | 85 | 1010.6 |
| 20260507124255 | 15 | 65 | 6.4 | 20.9 | 0.36 | 1.14 | 1.14 | 84 | 1010.5 |
| 20260507123749 | 15 | 5 | 8.0 | 20.9 | 0.38 | 1.14 | 1.14 | 84 | 1010.5 |
| 20260507123243 | 16 | 40 | 6.4 | 16.1 | 0.43 | 1.14 | 1.14 | 84 | 1010.6 |
| 20260507122737 | 16 | 355 | 6.4 | 17.7 | 0.48 | 1.14 | 1.14 | 84 | 1010.6 |
| 20260507122243 | 16 | 43 | 6.4 | 17.7 | 0.48 | 1.12 | 1.14 | 83 | 1010.7 |
| 20260507121725 | 16 | 9 | 6.4 | 17.7 | 0.58 | 1.12 | 1.12 | 83 | 1010.5 |
| 20260507121219 | 16 | 5 | 6.4 | 20.9 | 0.58 | 1.09 | 1.12 | 82 | 1010.6 |
| 20260507120712 | 16 | 29 | 8.0 | 20.9 | 0.58 | 1.07 | 1.09 | 82 | 1010.6 |
| 20260507120207 | 16 | 0 | 8.0 | 17.7 | 0.58 | 1.04 | 1.04 | 81 | 1010.4 |
| 20260507115704 | 17 | 324 | 6.4 | 17.7 | 0.51 | 0.97 | 0.99 | 81 | 1010.5 |
| 20260507115658 | 17 | 34 | 8.0 | 25.7 | 0.43 | 0.89 | 0.91 | 81 | 1010.6 |
| 20260507114648 | 18 | 355 | 4.8 | 25.7 | 0.41 | 0.81 | 0.81 | 81 | 1010.3 |
| 20260507114143 | 19 | 341 | 0.0 | 11.3 | 0.41 | 0.79 | 0.79 | 83 | 1010.3 |
| 20260507113637 | 19 | 40 | 0.0 | 0.0 | 0.41 | 0.76 | 0.76 | 83 | 1009.9 |
| 20260507113131 | 19 | 18 | 0.0 | 0.0 | 0.38 | 0.71 | 0.71 | 83 | 1009.9 |
| 20260507112624 | 19 | 59 | 0.0 | 1.6 | 0.46 | 0.66 | 0.66 | 83 | 1009.7 |
| 20260507112119 | 19 | 9 | 0.0 | 1.6 | 0.51 | 0.61 | 0.64 | 83 | 1009.9 |
| 20260507111613 | 19 | 17 | 0.0 | 0.0 | 0.46 | 0.51 | 0.51 | 82 | 1010.0 |
| 20260507111107 | 19 | 17 | 0.0 | 0.0 | 0.46 | 0.48 | 0.48 | 82 | 1009.9 |
| 20260507110601 | 19 | 17 | 0.0 | 0.0 | 0.46 | 0.48 | 0.48 | 82 | 1009.7 |
| 20260507110334 | 19 | 17 | 0.0 | 0.0 | 0.43 | 0.46 | 0.46 | 82 | 1009.8 |
| 20260507105820 | 19 | 74 | 0.0 | 0.0 | 0.46 | 0.46 | 0.46 | 82 | 1010.0 |
| 20260507105043 | 19 | 264 | 0.0 | 0.0 | 0.43 | 0.43 | 0.43 | 81 | 1009.8 |
| 20260507104808 | 20 | 286 | 0.0 | 0.0 | 0.41 | 0.41 | 0.41 | 81 | 1009.8 |
| 20260507104031 | 20 | 286 | 0.0 | 0.0 | 0.38 | 0.38 | 0.38 | 81 | 1009.6 |
| 20260507103524 | 20 | 339 | 0.0 | 0.0 | 0.36 | 0.36 | 0.36 | 81 | 1009.7 |
| 20260507103019 | 20 | 339 | 0.0 | 0.0 | 0.30 | 0.30 | 0.33 | 81 | 1009.6 |
| 20260507102512 | 20 | 339 | 0.0 | 0.0 | 0.18 | 0.18 | 0.20 | 80 | 1009.6 |
| 20260507102007 | 20 | 333 | 0.0 | 0.0 | 0.08 | 0.08 | 0.10 | 80 | 1009.6 |
| 20260507101517 | 20 | 324 | 0.0 | 0.0 | 0.05 | 0.05 | 0.05 | 80 | 1009.3 |
| 20260507101458 | 20 | 296 | 0.0 | 0.0 | 0.03 | 0.03 | 0.03 | 79 | 1009.1 |
| 20260507100721 | 20 | 253 | 0.0 | 0.0 | 0.03 | 0.03 | 0.03 | 79 | 1009.1 |
| 20260507095942 | 20 | 253 | 0.0 | 0.0 | 0.03 | 0.03 | 0.03 | 79 | 1008.9 |
| 20260507095437 | 20 | 267 | 0.0 | 0.0 | 0.00 | 0.00 | 0.00 | 79 | 1008.8 |
| 20260507095201 | 20 | 207 | 0.0 | 0.0 | 0.00 | 0.00 | 0.00 | 79 | 1008.8 |
| 20260507094425 | 20 | 204 | 0.0 | 0.0 | 0.00 | 0.00 | 0.00 | 79 | 1008.7 |
| 20260507093919 | 20 | 204 | 0.0 | 0.0 | 0.00 | 0.00 | 0.00 | 78 | 1008.5 |
| 20260507093413 | 20 | 283 | 0.0 | 0.0 | 0.00 | 0.00 | 0.00 | 78 | 1008.5 |
| 20260507092907 | 20 | 290 | 0.0 | 0.0 | 0.00 | 0.00 | 0.00 | 78 | 1008.6 |
| 20260507092401 | 20 | 290 | 0.0 | 0.0 | 0.00 | 0.00 | 0.00 | 78 | 1008.6 |
| 20260507091855 | 20 | 347 | 0.0 | 0.0 | 0.00 | 0.00 | 0.00 | 78 | 1008.6 |
| 20260507091402 | 20 | 214 | 0.0 | 0.0 | 0.00 | 0.00 | 0.00 | 77 | 1008.9 |
| 20260507090843 | 20 | 214 | 0.0 | 0.0 | 0.00 | 0.00 | 0.00 | 77 | 1009.0 |
| 20260507090336 | 20 | 214 | 0.0 | 0.0 | 0.00 | 0.00 | 0.00 | 77 | 1008.8 |
| 20260507085831 | 20 | 214 | 0.0 | 0.0 | 0.00 | 0.00 | 0.00 | 77 | 1009.0 |
| 20260507085325 | 20 | 223 | 0.0 | 0.0 | 0.00 | 0.00 | 0.00 | 77 | 1009.1 |
| 20260507085050 | 20 | 223 | 0.0 | 0.0 | 0.00 | 0.00 | 0.00 | 77 | 1009.1 |
| 20260507084313 | 20 | 200 | 0.0 | 0.0 | 0.00 | 0.00 | 0.00 | 76 | 1009.2 |
| 20260507084038 | 20 | 200 | 0.0 | 1.6 | 0.00 | 0.00 | 0.00 | 76 | 1009.3 |
| 20260507083300 | 20 | 200 | 0.0 | 1.6 | 0.00 | 0.00 | 0.00 | 76 | 1009.3 |
| 20260507082755 | 20 | 201 | 0.0 | 0.0 | 0.00 | 0.00 | 0.00 | 77 | 1009.2 |
| 20260507082249 | 20 | 217 | 0.0 | 0.0 | 0.00 | 0.00 | 0.00 | 76 | 1009.3 |
| 20260507081742 | 20 | 217 | 0.0 | 0.0 | 0.00 | 0.00 | 0.00 | 77 | 1009.4 |
| 20260507081507 | 20 | 204 | 0.0 | 3.2 | 0.00 | 0.00 | 0.00 | 77 | 1009.5 |
| 20260507080730 | 20 | 94 | 0.0 | 3.2 | 0.00 | 0.00 | 0.00 | 77 | 1009.4 |
| 20260507080225 | 20 | 209 | 0.0 | 0.0 | 0.00 | 0.00 | 0.00 | 77 | 1009.5 |
| 20260507075950 | 20 | 209 | 0.0 | 0.0 | 0.00 | 0.00 | 0.00 | 77 | 1009.6 |
| 20260507075213 | 20 | 209 | 0.0 | 0.0 | 0.00 | 0.00 | 0.00 | 77 | 1009.7 |
| 20260507074707 | 20 | 209 | 0.0 | 0.0 | 0.00 | 0.00 | 0.00 | 77 | 1009.8 |
| 20260507074201 | 20 | 209 | 0.0 | 1.6 | 0.00 | 0.00 | 0.00 | 77 | 1010.0 |
| 20260507073658 | 20 | 209 | 0.0 | 3.2 | 0.00 | 0.00 | 0.00 | 77 | 1009.7 |
| 20260507073159 | 20 | 221 | 0.0 | 3.2 | 0.00 | 0.00 | 0.00 | 77 | 1009.5 |
| 20260507072657 | 20 | 221 | 0.0 | 3.2 | 0.00 | 0.00 | 0.00 | 77 | 1009.7 |
| 20260507072155 | 20 | 221 | 0.0 | 3.2 | 0.00 | 0.00 | 0.00 | 76 | 1009.7 |
| 20260507071653 | 20 | 205 | 0.0 | 3.2 | 0.00 | 0.00 | 0.00 | 76 | 1009.6 |
| 20260507071424 | 20 | 205 | 0.0 | 4.8 | 0.00 | 0.00 | 0.00 | 76 | 1009.5 |
| 20260507070653 | 20 | 191 | 0.0 | 4.8 | 0.00 | 0.00 | 0.00 | 76 | 1009.3 |
| 20260507070150 | 20 | 200 | 0.0 | 0.0 | 0.00 | 0.00 | 0.00 | 75 | 1009.4 |
| 20260507065649 | 20 | 200 | 0.0 | 0.0 | 0.00 | 0.00 | 0.00 | 75 | 1009.5 |
| 20260507065417 | 20 | 200 | 0.0 | 0.0 | 0.00 | 0.00 | 0.00 | 75 | 1009.1 |
| 20260507064645 | 20 | 200 | 0.0 | 0.0 | 0.00 | 0.00 | 0.00 | 75 | 1009.0 |
| 20260507064145 | 20 | 200 | 0.0 | 3.2 | 0.00 | 0.00 | 0.00 | 75 | 1009.1 |
| 20260507063645 | 20 | 200 | 0.0 | 3.2 | 0.00 | 0.00 | 0.00 | 74 | 1009.3 |
| 20260507063144 | 20 | 157 | 0.0 | 1.6 | 0.00 | 0.00 | 0.00 | 73 | 1008.6 |
| 20260507062644 | 20 | 204 | 0.0 | 3.2 | 0.00 | 0.00 | 0.00 | 73 | 1009.2 |
| 20260507062414 | 20 | 204 | 0.0 | 3.2 | 0.00 | 0.00 | 0.00 | 73 | 1009.6 |
| 20260507061640 | 21 | 217 | 0.0 | 0.0 | 0.00 | 0.00 | 0.00 | 73 | 1010.0 |
| 20260507061138 | 21 | 217 | 0.0 | 3.2 | 0.00 | 0.00 | 0.00 | 72 | 1010.3 |
| 20260507060637 | 21 | 227 | 0.0 | 3.2 | 0.00 | 0.00 | 0.00 | 72 | 1010.4 |
| 20260507060408 | 21 | 231 | 0.0 | 3.2 | 0.00 | 0.00 | 0.00 | 72 | 1010.4 |
| 20260507055633 | 21 | 236 | 0.0 | 3.2 | 0.00 | 0.00 | 0.00 | 71 | 1010.5 |
| 20260507055127 | 21 | 223 | 0.0 | 3.2 | 0.00 | 0.00 | 0.00 | 70 | 1010.5 |
| 20260507054621 | 21 | 211 | 0.0 | 3.2 | 0.00 | 0.00 | 0.00 | 69 | 1010.5 |
| 20260507054115 | 21 | 206 | 0.0 | 3.2 | 0.00 | 0.00 | 0.00 | 69 | 1010.6 |
| 20260507053609 | 21 | 217 | 0.0 | 4.8 | 0.00 | 0.00 | 0.00 | 68 | 1010.6 |
| 20260507053103 | 21 | 235 | 0.0 | 4.8 | 0.00 | 0.00 | 0.00 | 68 | 1010.6 |
| 20260507052557 | 21 | 162 | 0.0 | 0.0 | 0.00 | 0.00 | 0.00 | 67 | 1010.6 |
| 20260507052104 | 21 | 215 | 0.0 | 0.0 | 0.00 | 0.00 | 0.00 | 67 | 1010.6 |
| 20260507051544 | 21 | 213 | 0.0 | 0.0 | 0.00 | 0.00 | 0.00 | 66 | 1010.7 |
| 20260507051039 | 21 | 207 | 0.0 | 0.0 | 0.00 | 0.00 | 0.00 | 66 | 1010.6 |
| 20260507050533 | 21 | 225 | 0.0 | 3.2 | 0.00 | 0.00 | 0.00 | 65 | 1010.5 |
| 20260507050027 | 21 | 201 | 0.0 | 3.2 | 0.00 | 0.00 | 0.00 | 65 | 1010.3 |
| 20260507045521 | 21 | 205 | 0.0 | 3.2 | 0.00 | 0.00 | 0.00 | 65 | 1010.3 |
| 20260507045246 | 21 | 187 | 0.0 | 3.2 | 0.00 | 0.00 | 0.00 | 65 | 1010.2 |
| 20260507044744 | 21 | 215 | 0.0 | 3.2 | 0.00 | 0.00 | 0.00 | 65 | 1010.3 |
| 20260507043959 | 21 | 188 | 0.0 | 3.2 | 0.00 | 0.00 | 0.00 | 64 | 1010.3 |
| 20260507043454 | 22 | 209 | 0.0 | 3.2 | 0.00 | 0.00 | 0.00 | 64 | 1010.6 |
| 20260507042947 | 22 | 202 | 0.0 | 3.2 | 0.00 | 0.00 | 0.00 | 65 | 1010.4 |
| 20260507042441 | 22 | 191 | 0.0 | 3.2 | 0.00 | 0.00 | 0.00 | 65 | 1010.6 |
| 20260507041934 | 22 | 200 | 0.0 | 3.2 | 0.00 | 0.00 | 0.00 | 65 | 1010.6 |
| 20260507041429 | 22 | 188 | 0.0 | 3.2 | 0.00 | 0.00 | 0.00 | 65 | 1010.6 |
| 20260507040923 | 22 | 196 | 0.0 | 3.2 | 0.00 | 0.00 | 0.00 | 65 | 1010.5 |
| 20260507040647 | 22 | 180 | 0.0 | 3.2 | 0.00 | 0.00 | 0.00 | 65 | 1010.4 |
| 20260507035911 | 22 | 200 | 0.0 | 1.6 | 0.00 | 0.00 | 0.00 | 65 | 1010.4 |
| 20260507035637 | 22 | 202 | 0.0 | 0.0 | 0.00 | 0.00 | 0.00 | 65 | 1010.2 |
| 20260507035130 | 22 | 202 | 0.0 | 3.2 | 0.00 | 0.00 | 0.00 | 65 | 1010.0 |
| 20260507034405 | 22 | 201 | 0.0 | 3.2 | 0.00 | 0.00 | 0.00 | 66 | 1010.0 |
| 20260507033341 | 22 | 190 | 0.0 | 3.2 | 0.00 | 0.00 | 0.00 | 66 | 1010.1 |
| 20260507032834 | 22 | 197 | 0.0 | 4.8 | 0.00 | 0.00 | 0.00 | 66 | 1010.0 |
| 20260507032329 | 22 | 197 | 1.6 | 4.8 | 0.00 | 0.00 | 0.00 | 66 | 1009.8 |
| 20260507031822 | 22 | 214 | 0.0 | 4.8 | 0.00 | 0.00 | 0.00 | 65 | 1010.0 |
| 20260507031317 | 22 | 196 | 0.0 | 0.0 | 0.00 | 0.00 | 0.00 | 65 | 1010.1 |
| 20260507030811 | 22 | 196 | 0.0 | 0.0 | 0.00 | 0.00 | 0.00 | 64 | 1010.2 |
| 20260507030305 | 22 | 196 | 0.0 | 0.0 | 0.00 | 0.00 | 0.00 | 64 | 1010.2 |
| 20260507025759 | 22 | 196 | 0.0 | 0.0 | 0.00 | 0.00 | 0.00 | 64 | 1010.2 |
| 20260507025253 | 22 | 196 | 0.0 | 0.0 | 0.00 | 0.00 | 0.00 | 64 | 1010.2 |
| 20260507024747 | 22 | 196 | 0.0 | 0.0 | 0.00 | 0.00 | 0.00 | 64 | 1010.4 |
| 20260507024241 | 22 | 196 | 0.0 | 0.0 | 0.00 | 0.00 | 0.00 | 64 | 1010.6 |
| 20260507023735 | 22 | 196 | 0.0 | 0.0 | 0.00 | 0.00 | 0.00 | 64 | 1010.7 |
| 20260507023229 | 22 | 196 | 0.0 | 0.0 | 0.00 | 0.00 | 0.00 | 64 | 1010.8 |
| 20260507022955 | 22 | 196 | 0.0 | 0.0 | 0.00 | 0.00 | 0.00 | 64 | 1010.8 |
| 20260507022230 | 23 | 196 | 0.0 | 0.0 | 0.00 | 0.00 | 0.00 | 64 | 1010.7 |
| 20260507021711 | 23 | 198 | 0.0 | 3.2 | 0.00 | 0.00 | 0.00 | 64 | 1010.7 |
| 20260507021205 | 23 | 198 | 0.0 | 3.2 | 0.00 | 0.00 | 0.00 | 64 | 1010.6 |
| 20260507020659 | 23 | 180 | 0.0 | 1.6 | 0.00 | 0.00 | 0.00 | 63 | 1010.7 |
| 20260507020153 | 23 | 199 | 0.0 | 0.0 | 0.00 | 0.00 | 0.00 | 62 | 1010.7 |
| 20260507015647 | 23 | 199 | 0.0 | 0.0 | 0.00 | 0.00 | 0.00 | 62 | 1010.8 |
| 20260507015141 | 23 | 199 | 0.0 | 0.0 | 0.00 | 0.00 | 0.00 | 61 | 1010.9 |
| 20260507014634 | 23 | 199 | 0.0 | 0.0 | 0.00 | 0.00 | 0.00 | 61 | 1010.9 |
| 20260507014129 | 23 | 198 | 0.0 | 3.2 | 0.00 | 0.00 | 0.00 | 61 | 1010.8 |
| 20260507013623 | 23 | 198 | 0.0 | 3.2 | 0.00 | 0.00 | 0.00 | 61 | 1010.6 |
| 20260507013120 | 23 | 202 | 0.0 | 3.2 | 0.00 | 0.00 | 0.00 | 60 | 1010.5 |
| 20260507013113 | 23 | 212 | 0.0 | 3.2 | 0.00 | 0.00 | 0.00 | 60 | 1010.7 |
| 20260507012104 | 23 | 190 | 0.0 | 0.0 | 0.00 | 0.00 | 0.00 | 60 | 1010.6 |
| 20260507011559 | 23 | 203 | 0.0 | 0.0 | 0.00 | 0.00 | 0.00 | 60 | 1010.7 |
| 20260507011053 | 23 | 207 | 0.0 | 0.0 | 0.00 | 0.00 | 0.00 | 59 | 1010.7 |
| 20260507010547 | 23 | 207 | 0.0 | 0.0 | 0.00 | 0.00 | 0.00 | 59 | 1010.7 |
| 20260507010312 | 23 | 207 | 0.0 | 0.0 | 0.00 | 0.00 | 0.00 | 59 | 1010.8 |
| 20260507005535 | 23 | 216 | 0.0 | 0.0 | 0.00 | 0.00 | 0.00 | 58 | 1010.7 |
| 20260507005028 | 23 | 216 | 0.0 | 0.0 | 0.00 | 0.00 | 0.00 | 58 | 1010.7 |
| 20260507004754 | 23 | 216 | 0.0 | 0.0 | 0.00 | 0.00 | 0.00 | 58 | 1010.6 |
| 20260507004017 | 23 | 216 | 0.0 | 0.0 | 0.00 | 0.00 | 0.00 | 58 | 1010.5 |
| 20260507003511 | 23 | 216 | 0.0 | 0.0 | 0.00 | 0.00 | 0.00 | 57 | 1010.4 |
| 20260507003249 | 24 | 216 | 0.0 | 0.0 | 0.00 | 0.00 | 0.00 | 57 | 1010.4 |
| 20260507002730 | 24 | 216 | 0.0 | 1.6 | 0.00 | 0.00 | 0.00 | 56 | 1010.4 |
| 20260507001952 | 24 | 216 | 0.0 | 1.6 | 0.00 | 0.00 | 0.00 | 56 | 1010.3 |
| 20260507001447 | 24 | 216 | 0.0 | 3.2 | 0.00 | 0.00 | 0.00 | 56 | 1010.2 |
| 20260507000941 | 24 | 216 | 0.0 | 3.2 | 0.00 | 0.00 | 0.00 | 56 | 1010.1 |
| 20260507000435 | 24 | 183 | 0.0 | 3.2 | 0.00 | 0.00 | 0.00 | 56 | 1009.9 |
| 20260506235929 | 24 | 195 | 0.0 | 3.2 | 0.00 | 0.00 | 0.00 | 56 | 1010.0 |
| 20260506235422 | 24 | 212 | 0.0 | 0.0 | 0.00 | 0.00 | 0.00 | 55 | 1010.1 |
| 20260506234917 | 24 | 209 | 0.0 | 0.0 | 0.00 | 0.00 | 0.00 | 55 | 1010.1 |
| 20260506234411 | 24 | 212 | 0.0 | 0.0 | 0.00 | 0.00 | 0.00 | 55 | 1010.0 |
| 20260506233905 | 24 | 209 | 0.0 | 0.0 | 0.00 | 0.00 | 0.00 | 55 | 1009.8 |
| 20260506233359 | 25 | 209 | 0.0 | 0.0 | 0.00 | 0.00 | 0.00 | 55 | 1009.7 |
| 20260506232853 | 25 | 185 | 0.0 | 0.0 | 0.00 | 0.00 | 0.00 | 55 | 1009.6 |
| 20260506232618 | 25 | 185 | 0.0 | 0.0 | 0.00 | 0.00 | 0.00 | 56 | 1009.7 |
| 20260506231840 | 25 | 185 | 0.0 | 1.6 | 0.00 | 0.00 | 0.00 | 55 | 1009.6 |
| 20260506231335 | 25 | 215 | 0.0 | 3.2 | 0.00 | 0.00 | 0.00 | 55 | 1009.6 |
| 20260506230829 | 25 | 219 | 0.0 | 3.2 | 0.00 | 0.00 | 0.00 | 54 | 1009.5 |
| 20260506230336 | 25 | 182 | 0.0 | 3.2 | 0.00 | 0.00 | 0.00 | 54 | 1009.5 |
| 20260506225817 | 25 | 202 | 0.0 | 6.4 | 0.00 | 0.00 | 0.00 | 54 | 1009.5 |
| 20260506225311 | 25 | 214 | 0.0 | 6.4 | 0.00 | 0.00 | 0.00 | 54 | 1009.6 |
| 20260506224805 | 25 | 175 | 0.0 | 3.2 | 0.00 | 0.00 | 0.00 | 54 | 1009.5 |
| 20260506224258 | 25 | 218 | 1.6 | 4.8 | 0.00 | 0.00 | 0.00 | 54 | 1009.6 |
| 20260506223753 | 25 | 206 | 1.6 | 4.8 | 0.00 | 0.00 | 0.00 | 54 | 1009.6 |
| 20260506223248 | 25 | 149 | 0.0 | 4.8 | 0.00 | 0.00 | 0.00 | 54 | 1009.6 |
| 20260506223242 | 25 | 212 | 1.6 | 4.8 | 0.00 | 0.00 | 0.00 | 54 | 1009.5 |
| 20260506222235 | 25 | 209 | 1.6 | 4.8 | 0.00 | 0.00 | 0.00 | 54 | 1009.5 |
| 20260506221729 | 25 | 200 | 0.0 | 4.8 | 0.00 | 0.00 | 0.00 | 54 | 1009.6 |
| 20260506221223 | 25 | 213 | 1.6 | 4.8 | 0.00 | 0.00 | 0.00 | 55 | 1009.7 |
| 20260506220717 | 25 | 223 | 1.6 | 8.0 | 0.00 | 0.00 | 0.00 | 54 | 1009.6 |
| 20260506220210 | 25 | 214 | 3.2 | 8.0 | 0.00 | 0.00 | 0.00 | 53 | 1009.5 |
| 20260506215705 | 25 | 210 | 3.2 | 8.0 | 0.00 | 0.00 | 0.00 | 54 | 1009.4 |
| 20260506215159 | 25 | 201 | 1.6 | 8.0 | 0.00 | 0.00 | 0.00 | 54 | 1009.6 |
| 20260506214653 | 25 | 194 | 0.0 | 6.4 | 0.00 | 0.00 | 0.00 | 54 | 1009.6 |
| 20260506214417 | 25 | 185 | 0.0 | 6.4 | 0.00 | 0.00 | 0.00 | 54 | 1009.4 |
| 20260506213641 | 25 | 212 | 1.6 | 6.4 | 0.00 | 0.00 | 0.00 | 54 | 1009.5 |
| 20260506213135 | 25 | 205 | 3.2 | 9.7 | 0.00 | 0.00 | 0.00 | 55 | 1009.2 |
| 20260506212629 | 25 | 217 | 3.2 | 9.7 | 0.00 | 0.00 | 0.00 | 54 | 1009.1 |
| 20260506212122 | 26 | 209 | 3.2 | 8.0 | 0.00 | 0.00 | 0.00 | 54 | 1009.2 |
| 20260506211617 | 25 | 209 | 3.2 | 12.9 | 0.00 | 0.00 | 0.00 | 54 | 1009.2 |
| 20260506211111 | 26 | 159 | 3.2 | 12.9 | 0.00 | 0.00 | 0.00 | 54 | 1009.4 |
| 20260506210604 | 25 | 181 | 3.2 | 12.9 | 0.00 | 0.00 | 0.00 | 54 | 1009.6 |
| 20260506210107 | 26 | 219 | 3.2 | 11.3 | 0.00 | 0.00 | 0.00 | 54 | 1009.7 |
| 20260506205552 | 25 | 149 | 4.8 | 11.3 | 0.00 | 0.00 | 0.00 | 54 | 1009.6 |
| 20260506205047 | 25 | 218 | 3.2 | 11.3 | 0.00 | 0.00 | 0.00 | 54 | 1009.6 |
| 20260506204544 | 25 | 251 | 1.6 | 6.4 | 0.00 | 0.00 | 0.00 | 54 | 1009.7 |
| 20260506204538 | 25 | 223 | 3.2 | 8.0 | 0.00 | 0.00 | 0.00 | 54 | 1009.9 |
| 20260506203528 | 25 | 246 | 3.2 | 8.0 | 0.00 | 0.00 | 0.00 | 54 | 1010.0 |
| 20260506203023 | 25 | 229 | 3.2 | 6.4 | 0.00 | 0.00 | 0.00 | 54 | 1010.2 |
| 20260506202517 | 25 | 196 | 3.2 | 9.7 | 0.00 | 0.00 | 0.00 | 54 | 1010.3 |
| 20260506202010 | 25 | 224 | 4.8 | 9.7 | 0.00 | 0.00 | 0.00 | 54 | 1010.3 |
| 20260506201736 | 26 | 249 | 3.2 | 8.0 | 0.00 | 0.00 | 0.00 | 54 | 1010.5 |
| 20260506200959 | 26 | 208 | 3.2 | 9.7 | 0.00 | 0.00 | 0.00 | 54 | 1010.6 |
| 20260506200452 | 26 | 217 | 4.8 | 16.1 | 0.00 | 0.00 | 0.00 | 54 | 1010.7 |
| 20260506195947 | 25 | 165 | 3.2 | 16.1 | 0.00 | 0.00 | 0.00 | 55 | 1010.8 |
| 20260506195441 | 25 | 181 | 1.6 | 6.4 | 0.00 | 0.00 | 0.00 | 56 | 1010.8 |
| 20260506194935 | 25 | 229 | 1.6 | 6.4 | 0.00 | 0.00 | 0.00 | 57 | 1010.9 |
| 20260506194700 | 25 | 212 | 3.2 | 9.7 | 0.00 | 0.00 | 0.00 | 57 | 1011.0 |
| 20260506193923 | 25 | 171 | 3.2 | 9.7 | 0.00 | 0.00 | 0.00 | 57 | 1011.1 |
| 20260506193417 | 25 | 174 | 3.2 | 11.3 | 0.00 | 0.00 | 0.00 | 57 | 1011.0 |
| 20260506193142 | 25 | 198 | 3.2 | 11.3 | 0.00 | 0.00 | 0.00 | 57 | 1011.0 |
| 20260506192405 | 25 | 194 | 1.6 | 9.7 | 0.00 | 0.00 | 0.00 | 58 | 1011.1 |
| 20260506191859 | 25 | 189 | 1.6 | 8.0 | 0.00 | 0.00 | 0.00 | 58 | 1011.1 |
| 20260506191625 | 25 | 219 | 3.2 | 8.0 | 0.00 | 0.00 | 0.00 | 58 | 1011.2 |
| 20260506190847 | 25 | 207 | 3.2 | 8.0 | 0.00 | 0.00 | 0.00 | 58 | 1011.2 |
| 20260506190341 | 25 | 184 | 3.2 | 17.7 | 0.00 | 0.00 | 0.00 | 59 | 1011.3 |
| 20260506185835 | 25 | 243 | 3.2 | 17.7 | 0.00 | 0.00 | 0.00 | 59 | 1011.4 |
| 20260506185329 | 24 | 219 | 3.2 | 8.0 | 0.00 | 0.00 | 0.00 | 59 | 1011.5 |
| 20260506184823 | 24 | 201 | 3.2 | 9.7 | 0.00 | 0.00 | 0.00 | 58 | 1011.5 |
| 20260506184601 | 25 | 209 | 3.2 | 8.0 | 0.00 | 0.00 | 0.00 | 58 | 1011.5 |
| 20260506183811 | 25 | 163 | 3.2 | 8.0 | 0.00 | 0.00 | 0.00 | 57 | 1011.6 |